Lexington Weather

Lexington, Massachusetts, USA

29°F
3/6/2021 6:48pm 
  • Lexington Conditions: Partly cloudy
  • Temperature: 28.9°F / -1.7°CColder 1.5°F than last hour.
  • Dew Point: 12.6°FDecreased 0.9°Fsince last hour.
  • Relative Humidity: 50%Increased 1.0% since last hour.
  • Wind: Wind from NW NW 1 mph, 10-min avg: 2 mph, gust: 6 mph
  • Barometer: 30.03 inRising 0.04  inHg/hr Rising Slowly
  • Visibility: 10 miles
  • Snow Today: 0.0 in
  •   

Regional Weather Roundup
for Boston / Norton, MA

        
000
ASUS41 KBOX 281104
RWRBOX

REGIONAL WEATHER ROUNDUP
NATIONAL WEATHER SERVICE BOSTON/NORTON MA
600 AM EST SUN FEB 28 2021

NOTE:  "FAIR" INDICATES FEW OR NO CLOUDS BELOW 12,000 FEET WITH NO 
SIGNIFICANT WEATHER AND/OR OBSTRUCTIONS TO VISIBILITY.

MAZALL-281200-
EASTERN MASSACHUSETTS
  
CITY           SKY/WX    TMP DP  RH WIND       PRES   REMARKS
BOSTON         MOCLDY    37  29  72 W7        30.28R WCI  32          
BEVERLY        CLEAR     34  30  85 SW3       30.26R                  
LAWRENCE       CLEAR     31  29  92 S6        30.27R WCI  25          
BEDFORD        CLEAR     30  27  88 CALM      30.26R                  
BLUE HILL        N/A     33  31  92 W9        30.24R WCI  25          
NORWOOD        CLEAR     30  27  88 CALM      30.27R FOG              
MARSHFIELD     CLEAR     34  32  93 CALM      30.27R                  
PLYMOUTH       FOG       30  29  96 CALM      30.27R VSB 3/4          
TAUNTON        CLEAR     29  27  92 CALM      30.27R                  
NEW BEDFORD    FOG       31  29  92 CALM      30.28R VSB 1            
$$

MAZALL-281200-
CAPE COD AND THE ISLANDS
  
CITY           SKY/WX    TMP DP  RH WIND       PRES   REMARKS
FALMOUTH       CLEAR     32  32 100 W5        30.27R WCI  27          
HYANNIS        CLEAR     32  30  92 CALM      30.26R                  
CHATHAM        CLEAR     34  31  88 CALM      30.27S                  
PROVINCETOWN   CLEAR     37  34  89 W6        30.27R                  
NANTUCKET        N/A    N/A N/A N/A MISG      30.28R                  
MARTHAS VNYRD  CLEAR     29  29 100 W3        30.28R                  
$$
 
MAZALL-281200-
CENTRAL AND WESTERN MASSACHUSETTS
  
CITY           SKY/WX    TMP DP  RH WIND       PRES   REMARKS
WORCESTER      CLEAR     34  27  75 NW7       30.24R WCI  28          
FITCHBURG      CLEAR     28  28 100 CALM      30.27R                  
ORANGE         FOG       27  26  96 CALM      30.28R VSB 3/4          
SPRINGFIELD    PTCLDY    27  27  99 CALM      30.28R                  
WESTFIELD      PTCLDY    29  29 100 CALM      30.28R FOG              
NORTH ADAMS    PTCLDY    30  26  85 CALM      30.30R                  
PITTSFIELD     PTCLDY    32  28  85 W8        30.25R WCI  25          
$$
 
RIZALL-281200-
RHODE ISLAND
  
CITY           SKY/WX    TMP DP  RH WIND       PRES   REMARKS
PROVIDENCE     PTCLDY    33  31  92 W5        30.29R WCI  29          
NEWPORT        CLEAR     34  32  92 CALM      30.28R                  
BLOCK ISLAND   CLEAR     36  32  85 W6        30.30S WCI  31          
SMITHFIELD     CLEAR     29  29 100 W3        30.27R                  
WESTERLY       CLEAR     30  30 100 CALM      30.29R FOG              
$$
 
CTZALL-281200-
CONNECTICUT
  
CITY           SKY/WX    TMP DP  RH WIND       PRES   REMARKS
BRADLEY INTL   MOCLDY    31  29  92 W3        30.28R                  
HARTFORD       PTCLDY    31  29  92 CALM      30.31R                  
BRIDGEPORT     PTCLDY    36  32  85 CALM      30.32R                  
DANBURY        PTCLDY    33  29  85 CALM      30.32R                  
GROTON         PTCLDY    32  31  96 CALM      30.30R                  
NEW HAVEN      PTCLDY    33  32  96 CALM      30.31R FOG              
CHESTER        FAIR      36  32  87 SW3       30.30R                  
MERIDEN        PTCLDY    30  29  96 CALM      30.31R FOG              
WILLIMANTIC    FOG       29  28  96 CALM      30.29R VSB 1            
OXFORD         PTCLDY    32  30  92 CALM      30.30R                  
$$

MEZ002-015-021-024-NHZ003-005-008-011-012-014-VTZ005-008-281200-
NORTHERN NEW ENGLAND
  
CITY           SKY/WX    TMP DP  RH WIND       PRES   REMARKS
PORTLAND ME    PTCLDY    29  26  89 SE6       30.21R WCI  23          
BANGOR ME      PTCLDY    34  26  72 NW8       30.18R WCI  27          
CONCORD NH     CLEAR     27  24  89 CALM      30.23R                  
MANCHESTER NH  MOCLDY    30  26  85 S3        30.24R                  
NASHUA NH      CLEAR     27  27 100 CALM        N/A                   
PORTSMOUTH NH  CLOUDY    34  28  78 SW6       30.22R WCI  29          
JAFFREY NH     CLEAR     30  27  88 S5        30.24R WCI  25          
KEENE NH       PTCLDY    24  24 100 CALM      30.29R FOG              
BURLINGTON VT  PTCLDY    32  26  78 CALM      30.28S                  
MT. WASHINGTON BLWGSNOW  12  12 100 NW51G68     N/A  VSB 1/16WCI -14  
$$

NYZ052-076-281200-
EASTERN NEW YORK
  
CITY           SKY/WX    TMP DP  RH WIND       PRES   REMARKS
ALBANY         MOCLDY    29  27  92 CALM      30.30R                  
NEW YORK CITY  CLOUDY    40  32  73 CALM      30.33R                  
$$
 
ANZALL-281200-
MARINE OBSERVATIONS
  
STATION/POSITION TIME  TEMP    WIND        PRES    VSBY  WAVE
                       AIR SEA DIR/SP/G                  HT/PER
                 (UTC) (F)     (DEG/KT/KT) (MB)    (MI)  (FT/S)
BOSTON BUOY      1040   39 39  260/  6/  8 1025.5R
BUZZARDS BAY     1000          290/  9/  9 1026.1R
NANTUCKET SOUND  1040      37  280/  4/  6   N/A
MASS BAY-STELLWA 1004   40     270/  8/ 12 1023.4R  1 7/8  3/11
ISLE OF SHOALS   1000   38     260/  8/  8 1022.8R
S OF BLOCK IS    1026      40                N/A           8/11
$$

......................KEY.........................
  SKY/WX - SKY CONDITION/PRESENT WEATHER
  TMP    - TEMPERATURE IN FAHRENHEIT
  DWPT   - DEWPOINT IN FAHRENHEIT
  RH     - RELATIVE HUMIDITY IN PERCENT
  WIND   - DIRECTION AND SPEED IN MPH
  PRES   - MEAN SEA LEVEL PRESSURE IN INCHES OF HG
  WCI    - WIND CHILL INDEX
  VSB    - VISIBILITY IN MILES
  HX     - HEAT INDEX
  TC     - TEMPERATURE IN CELSIUS
  VRB    - VARIABLE WIND DIRECTION
  N/A    - NOT AVAILABLE
  
      

Other recent Regional Weather Roundups

Sat Mar 6, 6:04pm

Sat Mar 6, 5:04pm

Sat Mar 6, 4:05pm

Sat Mar 6, 3:04pm

Sat Mar 6, 2:04pm

Sat Mar 6, 1:05pm

Sat Mar 6, 12:04pm

Sat Mar 6, 11:04am

Sat Mar 6, 10:04am

Sat Mar 6, 9:04am

Sat Mar 6, 8:04am

Sat Mar 6, 7:04am

Sat Mar 6, 6:04am

Sat Mar 6, 5:04am

Sat Mar 6, 4:04am

Sat Mar 6, 3:04am

Sat Mar 6, 2:04am

Sat Mar 6, 1:04am

Sat Mar 6, 12:04am

Fri Mar 5, 11:04pm

Fri Mar 5, 10:04pm

Fri Mar 5, 9:04pm

Fri Mar 5, 8:04pm

Fri Mar 5, 7:04pm

Fri Mar 5, 6:04pm

Fri Mar 5, 5:04pm

Fri Mar 5, 4:05pm

Fri Mar 5, 3:04pm

Fri Mar 5, 2:04pm

Fri Mar 5, 1:04pm

Fri Mar 5, 12:04pm

Fri Mar 5, 11:04am

Fri Mar 5, 10:04am

Fri Mar 5, 9:04am

Fri Mar 5, 8:04am

Fri Mar 5, 7:04am

Fri Mar 5, 6:04am

Fri Mar 5, 5:04am

Fri Mar 5, 4:04am

Fri Mar 5, 3:04am

Fri Mar 5, 2:04am

Fri Mar 5, 1:04am

Fri Mar 5, 12:04am

Thu Mar 4, 11:04pm

Thu Mar 4, 10:04pm

Thu Mar 4, 9:04pm

Thu Mar 4, 8:04pm

Thu Mar 4, 7:04pm

Thu Mar 4, 6:04pm

Thu Mar 4, 5:04pm

Thu Mar 4, 4:04pm

Thu Mar 4, 3:04pm

Thu Mar 4, 2:04pm

Thu Mar 4, 1:04pm

Thu Mar 4, 12:04pm

Thu Mar 4, 11:04am

Thu Mar 4, 10:04am

Thu Mar 4, 9:04am

Thu Mar 4, 8:04am

Thu Mar 4, 7:04am

Thu Mar 4, 6:04am

Thu Mar 4, 5:04am

Thu Mar 4, 4:04am

Thu Mar 4, 3:04am

Thu Mar 4, 2:04am

Thu Mar 4, 1:04am

Thu Mar 4, 12:04am

Wed Mar 3, 11:04pm

Wed Mar 3, 10:04pm

Wed Mar 3, 9:04pm

Wed Mar 3, 8:04pm

Wed Mar 3, 7:04pm

Wed Mar 3, 6:04pm

Wed Mar 3, 5:04pm

Wed Mar 3, 4:04pm

Wed Mar 3, 3:04pm

Wed Mar 3, 2:04pm

Wed Mar 3, 1:04pm

Wed Mar 3, 12:04pm

Wed Mar 3, 11:04am

Wed Mar 3, 10:04am

Wed Mar 3, 9:04am

Wed Mar 3, 8:04am

Wed Mar 3, 7:04am

Wed Mar 3, 6:05am

Wed Mar 3, 5:04am

Wed Mar 3, 4:04am

Wed Mar 3, 3:04am

Wed Mar 3, 2:04am

Wed Mar 3, 1:04am

Wed Mar 3, 12:04am

Tue Mar 2, 11:04pm

Tue Mar 2, 10:05pm

Tue Mar 2, 9:04pm

Tue Mar 2, 8:04pm

Tue Mar 2, 7:04pm

Tue Mar 2, 6:04pm

Tue Mar 2, 5:04pm

Tue Mar 2, 4:05pm

Tue Mar 2, 3:04pm

Tue Mar 2, 2:04pm

Tue Mar 2, 1:04pm

Tue Mar 2, 12:04pm

Tue Mar 2, 11:04am

Tue Mar 2, 10:05am

Tue Mar 2, 9:04am

Tue Mar 2, 8:04am

Tue Mar 2, 7:04am

Tue Mar 2, 6:05am

Tue Mar 2, 5:04am

Tue Mar 2, 4:04am

Tue Mar 2, 3:04am

Tue Mar 2, 2:04am

Tue Mar 2, 1:04am

Tue Mar 2, 12:04am

Mon Mar 1, 11:04pm

Mon Mar 1, 10:04pm

Mon Mar 1, 9:04pm

Mon Mar 1, 8:04pm

Mon Mar 1, 7:04pm

Mon Mar 1, 6:04pm

Mon Mar 1, 5:04pm

Mon Mar 1, 4:05pm

Mon Mar 1, 3:05pm

Mon Mar 1, 2:04pm

Mon Mar 1, 1:04pm

Mon Mar 1, 12:04pm

Mon Mar 1, 11:04am

Mon Mar 1, 10:04am

Mon Mar 1, 9:04am

Mon Mar 1, 8:05am

Mon Mar 1, 7:04am

Mon Mar 1, 6:04am

Mon Mar 1, 5:04am

Mon Mar 1, 4:05am

Mon Mar 1, 3:04am

Mon Mar 1, 2:04am

Mon Mar 1, 1:04am

Mon Mar 1, 12:05am

Sun Feb 28, 11:04pm

Sun Feb 28, 10:04pm

Sun Feb 28, 9:04pm

Sun Feb 28, 8:04pm

Sun Feb 28, 7:04pm

Sun Feb 28, 6:05pm

Sun Feb 28, 5:04pm

Sun Feb 28, 4:05pm

Sun Feb 28, 3:04pm

Sun Feb 28, 2:04pm

Sun Feb 28, 1:04pm

Sun Feb 28, 12:04pm

Sun Feb 28, 11:04am

Sun Feb 28, 10:04am

Sun Feb 28, 9:04am

Sun Feb 28, 8:04am

Sun Feb 28, 7:04am

Sun Feb 28, 5:04am

Sun Feb 28, 4:04am

Sun Feb 28, 3:04am

Sun Feb 28, 2:04am

Sun Feb 28, 1:04am

Sun Feb 28, 12:04am

Sat Feb 27, 11:04pm

Sat Feb 27, 10:04pm

Sat Feb 27, 9:04pm

Sat Feb 27, 8:04pm

Sat Feb 27, 7:04pm

Meta data:

ID: 6fb7c9f7-baed-430d-81d6-ed40923b83a8
Link: https://api.weather.gov/products/6fb7c9f7-baed-430d-81d6-ed40923b83a8